Location: Estes Par
(40.3770°N, 105.5210°W)
Time: 20:50:57
(UTC-06:00)

Tiangong 1 - Pass Details

Date: 11 October 2017
Orbit: 292 x 320 km, 42.8° (Epoch: 21 October)

Event Time Altitude Azimuth Distance (km) Brightness Sun altitude
Rises 19:00:37 0° 278° (W) 2,040 6.8 -7.1°
Reaches altitude 10° 19:02:39 10° 284° (WNW) 1,205 5.0 -7.4°
Maximum altitude 19:05:16 46° 0° (N) 426 1.3 -7.9°
Enters shadow 19:07:36 12° 75° (ENE) 1,088 2.7 -8.4°
